Starlink 32276

operational
NORAD ID: 60944 Int'l Des: 2024-155 Owner: SPXS Country: US Constellation: starlink
LEOCIRCULAR

About Starlink 32276

Description loading...

Live Position

Loading 3D Globe...

Upcoming Passes

Altitude History

Altitude vs Time

uPlot chart will show altitude changes over time

Two-Line Element Set

1 60944U 24155W 25306.42777902 .00002135 00000-0 84276-4 0 9996
2 60944 53.1614 0.9864 0001331 78.3083 281.8067 15.30169575 66904
Epoch: Nov 2, 2025 • Age: 16 hours

Current Status

Altitude 479.5 km
Velocity 7.63 km/s
Sub-Earth Point 46.95°N, 25.24°W
Launch Date Aug 31, 2024
Age 1.1 years
Type internet

Technical Details

Classification Payload
Mass 730.00 kg
Dry Mass 700.00 kg
Total Mass 730.00 kg
Length 0.30 m
Diameter 4.10 m
Span 29.00 m
Shape Box + pan
Manufacturer SPXS
Bus Type Starlink V2M
Phase Status In Orbit
Owner/State SPXS/US

Large Constellations

Loading constellations...